date,time,water_lv
2021-08-01,00:00:00,321.02
2021-08-01,00:10:00,321.03
2021-08-01,00:20:00,321.03
2021-08-01,00:30:00,321.03
2021-08-01,00:40:00,321.02
2021-08-01,00:50:00,321.02
2021-08-01,01:00:00,321.02
2021-08-01,01:10:00,321.02
2021-08-01,01:20:00,321.02
2021-08-01,01:30:00,321.02
2021-08-01,01:40:00,321.02
2021-08-01,01:50:00,321.02
2021-08-01,02:00:00,321.02
2021-08-01,02:10:00,321.02
2021-08-01,02:20:00,321.02
2021-08-01,02:30:00,321.02
2021-08-01,02:40:00,321.02
2021-08-01,02:50:00,321.02
2021-08-01,03:00:00,321.02
2021-08-01,03:10:00,321.02
2021-08-01,03:20:00,321.02
2021-08-01,03:30:00,321.01
2021-08-01,03:40:00,321.02
2021-08-01,03:50:00,321.01
2021-08-01,04:00:00,321.01
2021-08-01,04:10:00,321.01
2021-08-01,04:20:00,321.01
2021-08-01,04:30:00,321.01
2021-08-01,04:40:00,321.01
2021-08-01,04:50:00,321.01
2021-08-01,05:00:00,321.01
2021-08-01,05:10:00,321.01
2021-08-01,05:20:00,321.01
2021-08-01,05:30:00,321.01
2021-08-01,05:40:00,321.01
2021-08-01,05:50:00,321.01
2021-08-01,06:00:00,321.01
2021-08-01,06:10:00,321.01
2021-08-01,06:20:00,321.01
2021-08-01,06:30:00,321.01
2021-08-01,06:40:00,321.01
2021-08-01,06:50:00,321.01
2021-08-01,07:00:00,321.01
2021-08-01,07:10:00,321.01
2021-08-01,07:20:00,321.01
2021-08-01,07:30:00,321
2021-08-01,07:40:00,321
2021-08-01,07:50:00,321
2021-08-01,08:00:00,321
2021-08-01,08:10:00,321
2021-08-01,08:20:00,321
2021-08-01,08:30:00,321
2021-08-01,08:40:00,321
2021-08-01,08:50:00,321
2021-08-01,09:00:00,321
2021-08-01,09:10:00,321
2021-08-01,09:20:00,321
2021-08-01,09:30:00,320.99
2021-08-01,09:40:00,320.99
2021-08-01,09:50:00,320.99
2021-08-01,10:00:00,320.99
2021-08-01,10:10:00,320.99
2021-08-01,10:20:00,320.99
2021-08-01,10:30:00,320.99
2021-08-01,10:40:00,320.99
2021-08-01,10:50:00,320.99
2021-08-01,11:00:00,320.99
2021-08-01,11:10:00,320.99
2021-08-01,11:20:00,320.98
2021-08-01,11:30:00,320.99
2021-08-01,11:40:00,320.99
2021-08-01,11:50:00,320.99
2021-08-01,12:00:00,320.99
2021-08-01,12:10:00,321
2021-08-01,12:20:00,321
2021-08-01,12:30:00,321
2021-08-01,12:40:00,321
2021-08-01,12:50:00,321
2021-08-01,13:00:00,321
2021-08-01,13:10:00,321.01
2021-08-01,13:20:00,321.01
2021-08-01,13:30:00,321.01
2021-08-01,13:40:00,321.01
2021-08-01,13:50:00,321.01
2021-08-01,14:00:00,321.01
2021-08-01,14:10:00,321.01
2021-08-01,14:20:00,321.01
2021-08-01,14:30:00,321.01
2021-08-01,14:40:00,321.01
2021-08-01,14:50:00,321.01
2021-08-01,15:00:00,321.02
2021-08-01,15:10:00,321.01
2021-08-01,15:20:00,321.02
2021-08-01,15:30:00,321.02
2021-08-01,15:40:00,321.02
2021-08-01,15:50:00,321.02
2021-08-01,16:00:00,321.02
2021-08-01,16:10:00,321.02
2021-08-01,16:20:00,321.02
2021-08-01,16:30:00,321.02
2021-08-01,16:40:00,321.02
2021-08-01,16:50:00,321.02
2021-08-01,17:00:00,321.02
2021-08-01,17:10:00,321.02
2021-08-01,17:20:00,321.02
2021-08-01,17:30:00,321.02
2021-08-01,17:40:00,321.02
2021-08-01,17:50:00,321.02
2021-08-01,18:00:00,321.02
2021-08-01,18:10:00,321.02
2021-08-01,18:20:00,321.02
2021-08-01,18:30:00,321.02
2021-08-01,18:40:00,321.02
2021-08-01,18:50:00,321.02
2021-08-01,19:00:00,321.02
2021-08-01,19:10:00,321.02
2021-08-01,19:20:00,321.03
2021-08-01,19:30:00,321.02
2021-08-01,19:40:00,321.02
2021-08-01,19:50:00,321.02
2021-08-01,20:00:00,321.02
2021-08-01,20:10:00,321.02
2021-08-01,20:20:00,321.02
2021-08-01,20:30:00,321.02
2021-08-01,20:40:00,321.02
2021-08-01,20:50:00,321.02
2021-08-01,21:00:00,321.02
2021-08-01,21:10:00,321.03
2021-08-01,21:20:00,321.02
2021-08-01,21:30:00,321.03
2021-08-01,21:40:00,321.03
2021-08-01,21:50:00,321.03
2021-08-01,22:00:00,321.03
2021-08-01,22:10:00,321.03
2021-08-01,22:20:00,321.03
2021-08-01,22:30:00,321.03
2021-08-01,22:40:00,321.03
2021-08-01,22:50:00,321.03
2021-08-01,23:00:00,321.03
2021-08-01,23:10:00,321.03
2021-08-01,23:20:00,321.04
2021-08-01,23:30:00,321.04
2021-08-01,23:40:00,321.04
2021-08-01,23:50:00,321.04
2021-08-02,00:00:00,321.04
2021-08-02,00:10:00,321.04
2021-08-02,00:20:00,321.04
2021-08-02,00:30:00,321.04
2021-08-02,00:40:00,321.04
2021-08-02,00:50:00,321.04
2021-08-02,01:00:00,321.04
2021-08-02,01:10:00,321.04
2021-08-02,01:20:00,321.04
2021-08-02,01:30:00,321.04
2021-08-02,01:40:00,321.04
2021-08-02,01:50:00,321.04
2021-08-02,02:00:00,321.04
2021-08-02,02:10:00,321.04
2021-08-02,02:20:00,321.04
2021-08-02,02:30:00,321.04
2021-08-02,02:40:00,321.04
2021-08-02,02:50:00,321.04
2021-08-02,03:00:00,321.04
2021-08-02,03:10:00,321.04
2021-08-02,03:20:00,321.04
2021-08-02,03:30:00,321.04
2021-08-02,03:40:00,321.04
2021-08-02,03:50:00,321.04
2021-08-02,04:00:00,321.04
2021-08-02,04:10:00,321.04
2021-08-02,04:20:00,321.04
2021-08-02,04:30:00,321.05
2021-08-02,04:40:00,321.04
2021-08-02,04:50:00,321.04
2021-08-02,05:00:00,321.04
2021-08-02,05:10:00,321.04
2021-08-02,05:20:00,321.04
2021-08-02,05:30:00,321.04
2021-08-02,05:40:00,321.04
2021-08-02,05:50:00,321.04
2021-08-02,06:00:00,321.04
2021-08-02,06:10:00,321.04
2021-08-02,06:20:00,321.04
2021-08-02,06:30:00,321.05
2021-08-02,06:40:00,321.05
2021-08-02,06:50:00,321.04
2021-08-02,07:00:00,321.04
2021-08-02,07:10:00,321.05
2021-08-02,07:20:00,321.04
2021-08-02,07:30:00,321.04
2021-08-02,07:40:00,321.04
2021-08-02,07:50:00,321.04
2021-08-02,08:00:00,321.04
2021-08-02,08:10:00,321.04
2021-08-02,08:20:00,321.04
2021-08-02,08:30:00,321.04
2021-08-02,08:40:00,321.04
2021-08-02,08:50:00,321.04
2021-08-02,09:00:00,321.04
2021-08-02,09:10:00,321.04
2021-08-02,09:20:00,321.04
2021-08-02,09:30:00,321.03
2021-08-02,09:40:00,321.03
2021-08-02,09:50:00,321.05
2021-08-02,10:00:00,321.06
2021-08-02,10:10:00,321.07
2021-08-02,10:20:00,321.07
2021-08-02,10:30:00,321.07
2021-08-02,10:40:00,321.08
2021-08-02,10:50:00,321.08
2021-08-02,11:00:00,321.08
2021-08-02,11:10:00,321.08
2021-08-02,11:20:00,321.07
2021-08-02,11:30:00,321.07
2021-08-02,11:40:00,321.06
2021-08-02,11:50:00,321.04
2021-08-02,12:00:00,321.04
2021-08-02,12:10:00,321.04
2021-08-02,12:20:00,321.03
2021-08-02,12:30:00,321.02
2021-08-02,12:40:00,321.01
2021-08-02,12:50:00,321
2021-08-02,13:00:00,320.99
2021-08-02,13:10:00,320.98
2021-08-02,13:20:00,320.96
2021-08-02,13:30:00,320.96
2021-08-02,13:40:00,320.96
2021-08-02,13:50:00,320.95
2021-08-02,14:00:00,320.94
2021-08-02,14:10:00,320.94
2021-08-02,14:20:00,320.93
2021-08-02,14:30:00,320.92
2021-08-02,14:40:00,320.91
2021-08-02,14:50:00,320.9
2021-08-02,15:00:00,320.89
2021-08-02,15:10:00,320.88
2021-08-02,15:20:00,320.87
2021-08-02,15:30:00,320.86
2021-08-02,15:40:00,320.85
2021-08-02,15:50:00,320.83
2021-08-02,16:00:00,320.82
2021-08-02,16:10:00,320.81
2021-08-02,16:20:00,-
2021-08-02,16:30:00,320.78
2021-08-02,16:40:00,-
2021-08-02,16:50:00,320.76
2021-08-02,17:00:00,320.74
2021-08-02,17:10:00,-
2021-08-02,17:20:00,320.72
2021-08-02,17:30:00,-
2021-08-02,17:40:00,-
2021-08-02,17:50:00,-
2021-08-02,18:00:00,-
2021-08-02,18:10:00,320.65
2021-08-02,18:20:00,320.64
2021-08-02,18:30:00,320.62
2021-08-02,18:40:00,320.61
2021-08-02,18:50:00,320.6
2021-08-02,19:00:00,320.58
2021-08-02,19:10:00,320.57
2021-08-02,19:20:00,320.56
2021-08-02,19:30:00,320.55
2021-08-02,19:40:00,320.53
2021-08-02,19:50:00,320.52
2021-08-02,20:00:00,320.5
2021-08-02,20:10:00,320.49
2021-08-02,20:20:00,320.49
2021-08-02,20:30:00,320.47
2021-08-02,20:40:00,320.46
2021-08-02,20:50:00,320.44
2021-08-02,21:00:00,320.43
2021-08-02,21:10:00,320.42
2021-08-02,21:20:00,320.41
2021-08-02,21:30:00,320.4
2021-08-02,21:40:00,320.39
2021-08-02,21:50:00,320.37
2021-08-02,22:00:00,320.36
2021-08-02,22:10:00,320.35
2021-08-02,22:20:00,320.34
2021-08-02,22:30:00,320.33
2021-08-02,22:40:00,320.33
2021-08-02,22:50:00,320.31
2021-08-02,23:00:00,320.3
2021-08-02,23:10:00,320.29
2021-08-02,23:20:00,320.28
2021-08-02,23:30:00,320.28
2021-08-02,23:40:00,320.27
2021-08-02,23:50:00,320.26
2021-08-03,00:00:00,320.25
2021-08-03,00:10:00,320.25
2021-08-03,00:20:00,320.25
2021-08-03,00:30:00,320.24
2021-08-03,00:40:00,320.23
2021-08-03,00:50:00,320.24
2021-08-03,01:00:00,320.24
2021-08-03,01:10:00,320.24
2021-08-03,01:20:00,320.24
2021-08-03,01:30:00,320.24
2021-08-03,01:40:00,320.18
2021-08-03,01:50:00,320.16
2021-08-03,02:00:00,320.19
2021-08-03,02:10:00,320.2
2021-08-03,02:20:00,320.2
2021-08-03,02:30:00,320.17
2021-08-03,02:40:00,320.15
2021-08-03,02:50:00,320.14
2021-08-03,03:00:00,320.14
2021-08-03,03:10:00,320.14
2021-08-03,03:20:00,320.14
2021-08-03,03:30:00,320.14
2021-08-03,03:40:00,320.14
2021-08-03,03:50:00,320.17
2021-08-03,04:00:00,320.18
2021-08-03,04:10:00,320.17
2021-08-03,04:20:00,320.16
2021-08-03,04:30:00,320.11
2021-08-03,04:40:00,320.11
2021-08-03,04:50:00,320.12
2021-08-03,05:00:00,320.12
2021-08-03,05:10:00,320.12
2021-08-03,05:20:00,320.11
2021-08-03,05:30:00,320.1
2021-08-03,05:40:00,320.11
2021-08-03,05:50:00,320.11
2021-08-03,06:00:00,320.11
2021-08-03,06:10:00,320.12
2021-08-03,06:20:00,320.13
2021-08-03,06:30:00,320.1
2021-08-03,06:40:00,320.06
2021-08-03,06:50:00,320.05
2021-08-03,07:00:00,320.15
2021-08-03,07:10:00,320.08
2021-08-03,07:20:00,320.17
2021-08-03,07:30:00,320.16
2021-08-03,07:40:00,320.14
2021-08-03,07:50:00,320
2021-08-03,08:00:00,320.04
2021-08-03,08:10:00,320.01
2021-08-03,08:20:00,320.05
2021-08-03,08:30:00,320.04
2021-08-03,08:40:00,320.03
2021-08-03,08:50:00,320.03
2021-08-03,09:00:00,320.02
2021-08-03,09:10:00,320.02
2021-08-03,09:20:00,320.01
2021-08-03,09:30:00,320.01
2021-08-03,09:40:00,320.01
2021-08-03,09:50:00,320
2021-08-03,10:00:00,320
2021-08-03,10:10:00,319.99
2021-08-03,10:20:00,319.98
2021-08-03,10:30:00,319.99
2021-08-03,10:40:00,319.99
2021-08-03,10:50:00,319.98
2021-08-03,11:00:00,319.98
2021-08-03,11:10:00,319.99
2021-08-03,11:20:00,319.98
2021-08-03,11:30:00,319.99
2021-08-03,11:40:00,319.99
2021-08-03,11:50:00,319.99
2021-08-03,12:00:00,319.99
2021-08-03,12:10:00,319.99
2021-08-03,12:20:00,319.99
2021-08-03,12:30:00,319.98
2021-08-03,12:40:00,319.98
2021-08-03,12:50:00,319.98
2021-08-03,13:00:00,319.98
2021-08-03,13:10:00,319.98
2021-08-03,13:20:00,319.98
2021-08-03,13:30:00,319.98
2021-08-03,13:40:00,319.98
2021-08-03,13:50:00,319.98
2021-08-03,14:00:00,319.98
2021-08-03,14:10:00,319.98
2021-08-03,14:20:00,319.97
2021-08-03,14:30:00,319.97
2021-08-03,14:40:00,319.97
2021-08-03,14:50:00,319.97
2021-08-03,15:00:00,319.97
2021-08-03,15:10:00,319.97
2021-08-03,15:20:00,319.97
2021-08-03,15:30:00,319.97
2021-08-03,15:40:00,319.97
2021-08-03,15:50:00,319.98
2021-08-03,16:00:00,319.98
2021-08-03,16:10:00,319.98
2021-08-03,16:20:00,319.97
2021-08-03,16:30:00,319.97
2021-08-03,16:40:00,319.97
2021-08-03,16:50:00,319.97
2021-08-03,17:00:00,319.97
2021-08-03,17:10:00,319.97
2021-08-03,17:20:00,319.97
2021-08-03,17:30:00,319.98
2021-08-03,17:40:00,319.98
2021-08-03,17:50:00,319.97
2021-08-03,18:00:00,319.98
2021-08-03,18:10:00,319.97
2021-08-03,18:20:00,319.99
2021-08-03,18:30:00,319.99
2021-08-03,18:40:00,319.99
2021-08-03,18:50:00,319.97
2021-08-03,19:00:00,319.98
2021-08-03,19:10:00,319.98
2021-08-03,19:20:00,319.98
2021-08-03,19:30:00,319.97
2021-08-03,19:40:00,319.98
2021-08-03,19:50:00,319.98
2021-08-03,20:00:00,319.99
2021-08-03,20:10:00,319.99
2021-08-03,20:20:00,320
2021-08-03,20:30:00,319.99
2021-08-03,20:40:00,320
2021-08-03,20:50:00,319.99
2021-08-03,21:00:00,319.98
2021-08-03,21:10:00,319.98
2021-08-03,21:20:00,319.98
2021-08-03,21:30:00,319.98
2021-08-03,21:40:00,319.98
2021-08-03,21:50:00,319.98
2021-08-03,22:00:00,319.99
2021-08-03,22:10:00,319.99
2021-08-03,22:20:00,320
2021-08-03,22:30:00,320
2021-08-03,22:40:00,320
2021-08-03,22:50:00,320.03
2021-08-03,23:00:00,320.02
2021-08-03,23:10:00,320.01
2021-08-03,23:20:00,319.98
2021-08-03,23:30:00,319.98
2021-08-03,23:40:00,319.98
2021-08-03,23:50:00,319.98
2021-08-04,00:00:00,319.98
2021-08-04,00:10:00,319.98
2021-08-04,00:20:00,319.98
2021-08-04,00:30:00,319.98
2021-08-04,00:40:00,319.98
2021-08-04,00:50:00,319.98
2021-08-04,01:00:00,319.98
2021-08-04,01:10:00,319.98
2021-08-04,01:20:00,319.98
2021-08-04,01:30:00,319.98
2021-08-04,01:40:00,319.98
2021-08-04,01:50:00,319.98
2021-08-04,02:00:00,319.98
2021-08-04,02:10:00,319.98
2021-08-04,02:20:00,319.98
2021-08-04,02:30:00,319.98
2021-08-04,02:40:00,319.97
2021-08-04,02:50:00,319.97
2021-08-04,03:00:00,319.98
2021-08-04,03:10:00,319.98
2021-08-04,03:20:00,319.97
2021-08-04,03:30:00,319.97
2021-08-04,03:40:00,319.97
2021-08-04,03:50:00,319.97
2021-08-04,04:00:00,319.97
2021-08-04,04:10:00,319.97
2021-08-04,04:20:00,319.97
2021-08-04,04:30:00,319.97
2021-08-04,04:40:00,319.97
2021-08-04,04:50:00,319.98
2021-08-04,05:00:00,319.97
2021-08-04,05:10:00,319.97
2021-08-04,05:20:00,319.97
2021-08-04,05:30:00,319.97
2021-08-04,05:40:00,319.97
2021-08-04,05:50:00,319.97
2021-08-04,06:00:00,319.97
2021-08-04,06:10:00,319.97
2021-08-04,06:20:00,319.98
2021-08-04,06:30:00,319.98
2021-08-04,06:40:00,319.97
2021-08-04,06:50:00,319.97
2021-08-04,07:00:00,319.98
2021-08-04,07:10:00,319.97
2021-08-04,07:20:00,319.97
2021-08-04,07:30:00,319.97
2021-08-04,07:40:00,319.97
2021-08-04,07:50:00,319.97
2021-08-04,08:00:00,319.97
2021-08-04,08:10:00,319.97
2021-08-04,08:20:00,319.97
2021-08-04,08:30:00,319.96
2021-08-04,08:40:00,319.96
2021-08-04,08:50:00,319.97
2021-08-04,09:00:00,319.96
2021-08-04,09:10:00,319.97
2021-08-04,09:20:00,319.97
2021-08-04,09:30:00,319.97
2021-08-04,09:40:00,319.97
2021-08-04,09:50:00,319.97
2021-08-04,10:00:00,319.97
2021-08-04,10:10:00,319.97
2021-08-04,10:20:00,319.96
2021-08-04,10:30:00,319.96
2021-08-04,10:40:00,319.96
2021-08-04,10:50:00,319.96
2021-08-04,11:00:00,319.96
2021-08-04,11:10:00,319.96
2021-08-04,11:20:00,319.96
2021-08-04,11:30:00,319.96
2021-08-04,11:40:00,319.96
2021-08-04,11:50:00,319.96
2021-08-04,12:00:00,319.96
2021-08-04,12:10:00,319.96
2021-08-04,12:20:00,319.96
2021-08-04,12:30:00,319.96
2021-08-04,12:40:00,319.96
2021-08-04,12:50:00,319.96
2021-08-04,13:00:00,319.96
2021-08-04,13:10:00,319.96
2021-08-04,13:20:00,319.96
2021-08-04,13:30:00,319.96
2021-08-04,13:40:00,319.96
2021-08-04,13:50:00,319.96
2021-08-04,14:00:00,319.96
2021-08-04,14:10:00,319.96
2021-08-04,14:20:00,319.96
2021-08-04,14:30:00,319.96
2021-08-04,14:40:00,319.96
2021-08-04,14:50:00,319.96
2021-08-04,15:00:00,319.96
2021-08-04,15:10:00,319.96
2021-08-04,15:20:00,319.96
2021-08-04,15:30:00,319.96
2021-08-04,15:40:00,319.96
2021-08-04,15:50:00,319.96
2021-08-04,16:00:00,319.96
2021-08-04,16:10:00,319.96
2021-08-04,16:20:00,319.96
2021-08-04,16:30:00,319.96
2021-08-04,16:40:00,319.96
2021-08-04,16:50:00,319.96
2021-08-04,17:00:00,319.96
2021-08-04,17:10:00,319.96
2021-08-04,17:20:00,319.96
2021-08-04,17:30:00,319.96
2021-08-04,17:40:00,319.96
2021-08-04,17:50:00,319.96
2021-08-04,18:00:00,319.96
2021-08-04,18:10:00,319.96
2021-08-04,18:20:00,319.96
2021-08-04,18:30:00,319.97
2021-08-04,18:40:00,319.97
2021-08-04,18:50:00,319.97
2021-08-04,19:00:00,319.97
2021-08-04,19:10:00,319.97
2021-08-04,19:20:00,319.97
2021-08-04,19:30:00,319.97
2021-08-04,19:40:00,319.97
2021-08-04,19:50:00,319.97
2021-08-04,20:00:00,319.97
2021-08-04,20:10:00,319.97
2021-08-04,20:20:00,319.97
2021-08-04,20:30:00,319.96
2021-08-04,20:40:00,319.97
2021-08-04,20:50:00,319.96
2021-08-04,21:00:00,319.96
2021-08-04,21:10:00,319.96
2021-08-04,21:20:00,319.96
2021-08-04,21:30:00,319.96
2021-08-04,21:40:00,319.96
2021-08-04,21:50:00,319.96
2021-08-04,22:00:00,319.96
2021-08-04,22:10:00,319.97
2021-08-04,22:20:00,319.97
2021-08-04,22:30:00,319.97
2021-08-04,22:40:00,319.96
2021-08-04,22:50:00,319.97
2021-08-04,23:00:00,319.97
2021-08-04,23:10:00,319.96
2021-08-04,23:20:00,319.96
2021-08-04,23:30:00,319.96
2021-08-04,23:40:00,319.96
2021-08-04,23:50:00,319.96
2021-08-05,00:00:00,319.96
2021-08-05,00:10:00,319.96
2021-08-05,00:20:00,319.96
2021-08-05,00:30:00,319.96
2021-08-05,00:40:00,319.96
2021-08-05,00:50:00,319.96
2021-08-05,01:00:00,319.96
2021-08-05,01:10:00,319.97
2021-08-05,01:20:00,319.96
2021-08-05,01:30:00,319.96
2021-08-05,01:40:00,319.97
2021-08-05,01:50:00,319.96
2021-08-05,02:00:00,319.96
2021-08-05,02:10:00,319.96
2021-08-05,02:20:00,319.96
2021-08-05,02:30:00,319.96
2021-08-05,02:40:00,319.96
2021-08-05,02:50:00,319.96
2021-08-05,03:00:00,319.96
2021-08-05,03:10:00,319.96
2021-08-05,03:20:00,319.97
2021-08-05,03:30:00,319.97
2021-08-05,03:40:00,319.97
2021-08-05,03:50:00,319.97
2021-08-05,04:00:00,319.96
2021-08-05,04:10:00,319.97
2021-08-05,04:20:00,319.97
2021-08-05,04:30:00,319.97
2021-08-05,04:40:00,319.97
2021-08-05,04:50:00,319.97
2021-08-05,05:00:00,319.97
2021-08-05,05:10:00,319.97
2021-08-05,05:20:00,319.97
2021-08-05,05:30:00,319.97
2021-08-05,05:40:00,319.97
2021-08-05,05:50:00,319.97
2021-08-05,06:00:00,319.97
2021-08-05,06:10:00,319.97
2021-08-05,06:20:00,319.98
2021-08-05,06:30:00,319.97
2021-08-05,06:40:00,319.98
2021-08-05,06:50:00,319.98
2021-08-05,07:00:00,319.98
2021-08-05,07:10:00,319.98
2021-08-05,07:20:00,319.98
2021-08-05,07:30:00,319.98
2021-08-05,07:40:00,319.98
2021-08-05,07:50:00,319.98
2021-08-05,08:00:00,319.98
2021-08-05,08:10:00,319.98
2021-08-05,08:20:00,319.98
2021-08-05,08:30:00,319.98
2021-08-05,08:40:00,319.98
2021-08-05,08:50:00,319.98
2021-08-05,09:00:00,319.98
2021-08-05,09:10:00,319.97
2021-08-05,09:20:00,319.97
2021-08-05,09:30:00,319.97
2021-08-05,09:40:00,319.98
2021-08-05,09:50:00,319.97
2021-08-05,10:00:00,319.97
2021-08-05,10:10:00,319.98
2021-08-05,10:20:00,319.98
2021-08-05,10:30:00,319.97
2021-08-05,10:40:00,319.98
2021-08-05,10:50:00,319.97
2021-08-05,11:00:00,319.97
2021-08-05,11:10:00,319.97
2021-08-05,11:20:00,319.97
2021-08-05,11:30:00,319.97
2021-08-05,11:40:00,319.97
2021-08-05,11:50:00,319.97
2021-08-05,12:00:00,319.97
2021-08-05,12:10:00,319.96
2021-08-05,12:20:00,319.96
2021-08-05,12:30:00,319.96
2021-08-05,12:40:00,319.95
2021-08-05,12:50:00,319.96
2021-08-05,13:00:00,319.96
2021-08-05,13:10:00,319.96
2021-08-05,13:20:00,319.96
2021-08-05,13:30:00,319.96
2021-08-05,13:40:00,319.96
2021-08-05,13:50:00,319.96
2021-08-05,14:00:00,319.96
2021-08-05,14:10:00,319.96
2021-08-05,14:20:00,319.96
2021-08-05,14:30:00,319.96
2021-08-05,14:40:00,319.96
2021-08-05,14:50:00,319.96
2021-08-05,15:00:00,319.96
2021-08-05,15:10:00,319.96
2021-08-05,15:20:00,319.96
2021-08-05,15:30:00,319.96
2021-08-05,15:40:00,319.97
2021-08-05,15:50:00,319.97
2021-08-05,16:00:00,319.96
2021-08-05,16:10:00,319.95
2021-08-05,16:20:00,319.96
2021-08-05,16:30:00,319.96
2021-08-05,16:40:00,319.96
2021-08-05,16:50:00,319.96
2021-08-05,17:00:00,319.96
2021-08-05,17:10:00,319.96
2021-08-05,17:20:00,319.96
2021-08-05,17:30:00,319.96
2021-08-05,17:40:00,319.96
2021-08-05,17:50:00,319.96
2021-08-05,18:00:00,319.97
2021-08-05,18:10:00,319.97
2021-08-05,18:20:00,319.97
2021-08-05,18:30:00,319.97
2021-08-05,18:40:00,319.97
2021-08-05,18:50:00,319.97
2021-08-05,19:00:00,319.97
2021-08-05,19:10:00,319.97
2021-08-05,19:20:00,319.97
2021-08-05,19:30:00,319.97
2021-08-05,19:40:00,319.97
2021-08-05,19:50:00,319.97
2021-08-05,20:00:00,319.98
2021-08-05,20:10:00,319.97
2021-08-05,20:20:00,319.98
2021-08-05,20:30:00,319.97
2021-08-05,20:40:00,319.97
2021-08-05,20:50:00,319.98
2021-08-05,21:00:00,319.98
2021-08-05,21:10:00,319.99
2021-08-05,21:20:00,319.99
2021-08-05,21:30:00,319.99
2021-08-05,21:40:00,319.99
2021-08-05,21:50:00,319.99
2021-08-05,22:00:00,319.99
2021-08-05,22:10:00,319.99
2021-08-05,22:20:00,319.99
2021-08-05,22:30:00,319.98
2021-08-05,22:40:00,319.99
2021-08-05,22:50:00,319.98
2021-08-05,23:00:00,319.98
2021-08-05,23:10:00,319.98
2021-08-05,23:20:00,319.98
2021-08-05,23:30:00,319.98
2021-08-05,23:40:00,319.98
2021-08-05,23:50:00,319.99
2021-08-06,00:00:00,319.99
2021-08-06,00:10:00,319.99
2021-08-06,00:20:00,319.99
2021-08-06,00:30:00,319.99
2021-08-06,00:40:00,319.99
2021-08-06,00:50:00,319.99
2021-08-06,01:00:00,319.99
2021-08-06,01:10:00,319.99
2021-08-06,01:20:00,319.99
2021-08-06,01:30:00,319.99
2021-08-06,01:40:00,319.99
2021-08-06,01:50:00,319.99
2021-08-06,02:00:00,319.99
2021-08-06,02:10:00,319.99
2021-08-06,02:20:00,319.99
2021-08-06,02:30:00,320
2021-08-06,02:40:00,320
2021-08-06,02:50:00,320
2021-08-06,03:00:00,320
2021-08-06,03:10:00,320
2021-08-06,03:20:00,320
2021-08-06,03:30:00,319.99
2021-08-06,03:40:00,319.99
2021-08-06,03:50:00,319.99
2021-08-06,04:00:00,319.99
2021-08-06,04:10:00,320
2021-08-06,04:20:00,320
2021-08-06,04:30:00,320
2021-08-06,04:40:00,320
2021-08-06,04:50:00,320
2021-08-06,05:00:00,320
2021-08-06,05:10:00,320
2021-08-06,05:20:00,320
2021-08-06,05:30:00,320
2021-08-06,05:40:00,320
2021-08-06,05:50:00,320
2021-08-06,06:00:00,320
2021-08-06,06:10:00,320
2021-08-06,06:20:00,320
2021-08-06,06:30:00,320
2021-08-06,06:40:00,320
2021-08-06,06:50:00,319.99
2021-08-06,07:00:00,320
2021-08-06,07:10:00,320
2021-08-06,07:20:00,319.99
2021-08-06,07:30:00,320
2021-08-06,07:40:00,319.99
2021-08-06,07:50:00,319.99
2021-08-06,08:00:00,320
2021-08-06,08:10:00,320.01
2021-08-06,08:20:00,320.04
2021-08-06,08:30:00,320.06
2021-08-06,08:40:00,320.07
2021-08-06,08:50:00,320.09
2021-08-06,09:00:00,320.07
2021-08-06,09:10:00,320.09
2021-08-06,09:20:00,320.1
2021-08-06,09:30:00,320.12
2021-08-06,09:40:00,320.06
2021-08-06,09:50:00,320.1
2021-08-06,10:00:00,320.13
2021-08-06,10:10:00,319.96
2021-08-06,10:20:00,319.97
2021-08-06,10:30:00,319.97
2021-08-06,10:40:00,319.96
2021-08-06,10:50:00,320.02
2021-08-06,11:00:00,320.03
2021-08-06,11:10:00,320.06
2021-08-06,11:20:00,320.07
2021-08-06,11:30:00,320.09
2021-08-06,11:40:00,319.97
2021-08-06,11:50:00,319.97
2021-08-06,12:00:00,319.98
2021-08-06,12:10:00,319.97
2021-08-06,12:20:00,319.98
2021-08-06,12:30:00,319.99
2021-08-06,12:40:00,320
2021-08-06,12:50:00,319.98
2021-08-06,13:00:00,319.97
2021-08-06,13:10:00,319.97
2021-08-06,13:20:00,319.98
2021-08-06,13:30:00,319.99
2021-08-06,13:40:00,319.98
2021-08-06,13:50:00,319.99
2021-08-06,14:00:00,320
2021-08-06,14:10:00,319.97
2021-08-06,14:20:00,319.98
2021-08-06,14:30:00,320
2021-08-06,14:40:00,320
2021-08-06,14:50:00,319.99
2021-08-06,15:00:00,320
2021-08-06,15:10:00,320.01
2021-08-06,15:20:00,320
2021-08-06,15:30:00,319.98
2021-08-06,15:40:00,319.99
2021-08-06,15:50:00,319.99
2021-08-06,16:00:00,319.98
2021-08-06,16:10:00,319.98
2021-08-06,16:20:00,320
2021-08-06,16:30:00,320.01
2021-08-06,16:40:00,320.01
2021-08-06,16:50:00,319.99
2021-08-06,17:00:00,319.99
2021-08-06,17:10:00,320.01
2021-08-06,17:20:00,320
2021-08-06,17:30:00,319.99
2021-08-06,17:40:00,320
2021-08-06,17:50:00,319.99
2021-08-06,18:00:00,320.01
2021-08-06,18:10:00,319.99
2021-08-06,18:20:00,319.99
2021-08-06,18:30:00,320
2021-08-06,18:40:00,319.99
2021-08-06,18:50:00,319.99
2021-08-06,19:00:00,319.98
2021-08-06,19:10:00,319.98
2021-08-06,19:20:00,319.99
2021-08-06,19:30:00,319.99
2021-08-06,19:40:00,319.98
2021-08-06,19:50:00,320
2021-08-06,20:00:00,320.02
2021-08-06,20:10:00,319.99
2021-08-06,20:20:00,319.99
2021-08-06,20:30:00,319.98
2021-08-06,20:40:00,319.99
2021-08-06,20:50:00,319.98
2021-08-06,21:00:00,320
2021-08-06,21:10:00,320
2021-08-06,21:20:00,320
2021-08-06,21:30:00,320.01
2021-08-06,21:40:00,320.01
2021-08-06,21:50:00,320.01
2021-08-06,22:00:00,319.98
2021-08-06,22:10:00,319.93
2021-08-06,22:20:00,319.99
2021-08-06,22:30:00,320
2021-08-06,22:40:00,320
2021-08-06,22:50:00,320
2021-08-06,23:00:00,320
2021-08-06,23:10:00,320
2021-08-06,23:20:00,319.99
2021-08-06,23:30:00,319.99
2021-08-06,23:40:00,319.99
2021-08-06,23:50:00,319.99
2021-08-07,00:00:00,319.99
2021-08-07,00:10:00,319.99
2021-08-07,00:20:00,319.99
2021-08-07,00:30:00,319.99
2021-08-07,00:40:00,319.99
2021-08-07,00:50:00,319.99
2021-08-07,01:00:00,319.99
2021-08-07,01:10:00,319.99
2021-08-07,01:20:00,319.99
2021-08-07,01:30:00,319.98
2021-08-07,01:40:00,319.99
2021-08-07,01:50:00,319.99
2021-08-07,02:00:00,319.99
2021-08-07,02:10:00,319.99
2021-08-07,02:20:00,319.99
2021-08-07,02:30:00,319.99
2021-08-07,02:40:00,319.99
2021-08-07,02:50:00,319.99
2021-08-07,03:00:00,319.99
2021-08-07,03:10:00,319.98
2021-08-07,03:20:00,319.99
2021-08-07,03:30:00,319.98
2021-08-07,03:40:00,319.98
2021-08-07,03:50:00,319.98
2021-08-07,04:00:00,319.99
2021-08-07,04:10:00,319.98
2021-08-07,04:20:00,319.99
2021-08-07,04:30:00,319.99
2021-08-07,04:40:00,319.99
2021-08-07,04:50:00,319.98
2021-08-07,05:00:00,319.99
2021-08-07,05:10:00,319.99
2021-08-07,05:20:00,319.99